Location: Newark
(45.5000°N, 11.4167°E)
Time: 02:11:05
(UTC+00:00)

Vanguard 3 - Pass Details

Date: 24 August 2019
Orbit: 508 x 3263 km, 33.4° (Epoch: 14 September)

Event Time Altitude Azimuth Distance (km) Brightness Sun altitude
Rises 14:00:46 0° 211° (SSW) 5,780 12.2 41.0°
Reaches altitude 10° 14:07:05 10° 193° (SSW) 4,132 11.4 40.0°
Maximum altitude 14:12:26 15° 162° (SSE) 3,118 10.4 39.2°
Drops below altitude 10° 14:16:36 10° 129° (SE) 3,041 10.0 38.6°
Sets 14:20:05 0° 106° (ESE) 3,587 10.1 38.0°
